Somerville, NJ

9:07 AM EST on November 20, 2019 (GMT -0500)
Somerset

Weather History for KSMQ - October, 2019

Change the Weather History Date:

Monday, October 21, 2019

  Actual Average Record
Temperature  
Mean Temperature 57 °F -  
Max Temperature 70 °F 60 °F 85 °F (1947)
Min Temperature 44 °F 37 °F 21 °F (1972)
Degree Days  
Heating Degree Days 8    
Growing Degree Days 7 (Base 50)    
Moisture  
Dew Point 45 °F    
Average Humidity 75    
Maximum Humidity 97    
Minimum Humidity 39    
Precipitation  
Precipitation 0.01 in - - ()
Sea Level Pressure  
Sea Level Pressure 30.05 in    
Wind  
Wind Speed 4 mph (North)    
Max Wind Speed 10 mph    
Max Gust Speed -    
Visibility 9 miles    
Events      
Averages and records for this station are not official NWS values.
T = Trace of Precipitation, MM = Missing Value Source: NWS Daily Summary

Daily Weather History Graph

Daily Weather History Graph

Search for Another Location

Airport or City:

Astronomy

Oct. 21, 2019 Rise Set
Actual Time 7:16 AM EDT 6:09 PM EDT
Civil Twilight 6:48 AM EDT 6:37 PM EDT
Nautical Twilight 6:16 AM EDT 7:09 PM EDT
Astronomical Twilight 5:44 AM EDT 7:41 PM EDT
Moon No Moon Rise 2:33 PM EDT (10/21)
Length of Visible Light 11h 49m
Length of Day
10h 53m
Waning Gibbous, 48% of the Moon is Illuminated
Oct 21
Waning Gibbous
Oct 27
New
Nov 4
First Quarter
Nov 12
Full
Nov 19
Last Quarter

Hourly Weather History & Observations

Time (EDT) Temp. Windchill Dew Point Humidity Pressure Visibility Wind Dir Wind Speed Gust Speed Precip Events Conditions
12:53 AM 53.1 °F - 50.0 °F 89% 29.97 in 10.0 mi North 4.6 mph - 0.01 in   Partly Cloudy
1:53 AM 52.0 °F - 48.9 °F 89% 29.98 in 10.0 mi NNW 5.8 mph - N/A   Partly Cloudy
2:53 AM 50.0 °F - 48.0 °F 93% 29.98 in 10.0 mi NNW 4.6 mph - N/A   Clear
3:53 AM 48.0 °F - 46.9 °F 96% 29.99 in 9.0 mi NNW 5.8 mph - N/A   Clear
4:53 AM 46.9 °F - 46.0 °F 97% 30.00 in 8.0 mi NNW 4.6 mph - N/A   Clear
5:53 AM 48.0 °F - 46.0 °F 93% 30.01 in 9.0 mi NNW 4.6 mph - N/A   Clear
6:53 AM 46.9 °F - 45.0 °F 93% 30.04 in 6.0 mi NW 5.8 mph - N/A   Clear
7:34 AM 44.1 °F - 43.0 °F 96% 30.04 in 1.8 mi Calm Calm - N/A   Clear
7:53 AM 44.1 °F 42.5 °F 43.0 °F 96% 30.05 in 3.0 mi NW 3.5 mph - N/A   Clear
8:53 AM 52.0 °F - 46.9 °F 83% 30.06 in 10.0 mi North 6.9 mph - N/A   Clear
9:53 AM 57.9 °F - 46.9 °F 67% 30.05 in 10.0 mi North 10.4 mph - N/A   Clear
10:53 AM 62.1 °F - 44.1 °F 52% 30.07 in 10.0 mi NNE 8.1 mph - N/A   Clear
11:53 AM 66.0 °F - 43.0 °F 43% 30.07 in 10.0 mi East 9.2 mph - N/A   Clear
12:53 PM 66.9 °F - 41.0 °F 39% 30.05 in 10.0 mi ENE 9.2 mph - N/A   Clear
1:53 PM 69.1 °F - 43.0 °F 39% 30.04 in 10.0 mi Calm Calm - N/A   Clear
3:53 PM 70.0 °F - 44.1 °F 39% 30.04 in 10.0 mi Calm Calm - N/A   Clear
4:53 PM 68.0 °F - 44.1 °F 42% 30.05 in 10.0 mi Calm Calm - N/A   Clear
5:53 PM 62.1 °F - 44.1 °F 52% 30.06 in 10.0 mi Calm Calm - N/A   Clear
6:53 PM 57.0 °F - 45.0 °F 64% 30.06 in 10.0 mi Calm Calm - N/A   Clear
7:53 PM 52.0 °F - 46.0 °F 80% 30.09 in 10.0 mi Calm Calm - N/A   Clear
8:53 PM 50.0 °F - 46.0 °F 86% 30.11 in 10.0 mi Calm Calm - N/A   Clear
9:53 PM 46.9 °F - 45.0 °F 93% 30.11 in 10.0 mi Calm Calm - N/A   Clear
10:53 PM 46.9 °F - 45.0 °F 93% 30.11 in 10.0 mi Calm Calm - N/A   Clear
11:53 PM 46.9 °F - 45.0 °F 93% 30.11 in 10.0 mi Calm Calm - N/A   Clear